Location: Rounton
(54.4000°N, 1.3500°W)
Time: 22:54:37
(UTC+00:00)

Transit 4A - All Passes

Search period start: 29 November 2021 00:00
Search period end: 09 December 2021 00:00
Orbit: 866 x 978 km, 66.8° (Epoch: 29 November)

Date Brightness Start Highest point End Pass type
(mag) Time Alt. Az. Time Alt. Az. Time Alt. Az.
29 Nov - 00:35:09 10° WNW 00:40:11 26° N 00:45:20 10° NE night (unlit)
29 Nov - 02:22:53 10° NW 02:28:20 32° NNE 02:33:54 10° E visible
29 Nov - 04:09:28 10° NW 04:15:41 72° NE 04:22:02 10° SE visible
29 Nov - 05:56:14 10° NW 06:01:43 34° WSW 06:07:18 10° S visible
29 Nov - 19:25:02 10° SSE 19:29:18 21° ESE 19:33:41 10° ENE night (unlit)
29 Nov - 21:08:56 10° SW 21:14:51 84° SE 21:20:59 10° NE night (unlit)
29 Nov - 22:56:21 10° W 23:01:51 37° NNW 23:07:32 10° NE night (unlit)
30 Nov - 00:44:53 10° NW 00:49:54 26° N 00:55:01 10° NE night (unlit)
30 Nov - 02:32:18 10° NW 02:37:57 36° NNE 02:43:43 10° E visible
30 Nov - 04:18:47 10° NW 04:25:02 90° NE 04:31:25 10° SE visible
30 Nov - 06:05:51 10° WNW 06:10:46 25° WSW 06:15:46 10° SSW visible
30 Nov - 19:33:21 10° S 19:38:19 29° ESE 19:43:24 10° NE night (unlit)
30 Nov - 21:18:15 10° SW 21:24:11 76° NW 21:30:19 10° NE night (unlit)
30 Nov - 23:06:07 10° W 23:11:28 32° NNW 23:16:58 10° NE night (unlit)
01 Dec - 00:54:32 10° NW 00:59:36 26° N 01:04:47 10° ENE night (unlit)
01 Dec - 02:41:40 10° NW 02:47:31 42° NNE 02:53:29 10° ESE visible
01 Dec - 04:28:08 10° NW 04:34:19 71° SW 04:40:39 10° SSE visible
01 Dec - 06:15:42 10° WNW 06:19:45 18° WSW 06:23:50 10° SW visible
01 Dec - 19:41:57 10° S 19:47:23 40° ESE 19:52:57 10° NE visible
01 Dec - 21:27:41 10° WSW 21:33:34 61° NW 21:39:39 10° NE night (unlit)
01 Dec - 23:15:54 10° WNW 23:21:06 29° NNW 23:26:27 10° NE night (unlit)
02 Dec - 01:04:07 10° NW 01:09:18 27° NNE 01:14:36 10° ENE night (unlit)
02 Dec - 02:51:00 10° NW 02:57:02 51° NE 03:03:11 10° ESE visible
02 Dec - 04:37:31 10° NW 04:43:34 54° WSW 04:49:43 10° SSE visible
02 Dec - 06:26:07 10° WNW 06:28:39 13° W 06:31:13 10° SW visible
02 Dec - 18:09:35 10° ESE 18:11:31 12° E 18:13:29 10° E visible
02 Dec - 19:50:49 10° SSW 19:56:31 53° ESE 20:02:25 10° NE visible
02 Dec - 21:37:15 10° WSW 21:43:02 49° NW 21:49:00 10° NE night (unlit)
02 Dec - 23:25:42 10° WNW 23:30:47 27° N 23:36:00 10° NE night (unlit)
03 Dec - 01:13:37 10° NW 01:18:58 30° NNE 01:24:25 10° ENE night (unlit)
03 Dec - 03:00:19 10° NW 03:06:29 62° NE 03:12:47 10° ESE visible
03 Dec - 04:46:57 10° NW 04:52:43 41° WSW 04:58:35 10° S visible
03 Dec - 18:16:45 10° SE 18:20:25 17° ESE 18:24:07 10° ENE visible
03 Dec - 19:59:51 10° SSW 20:05:43 71° SE 20:11:49 10° NE visible
03 Dec - 21:46:54 10° W 21:52:32 41° NNW 21:58:21 10° NE night (unlit)
03 Dec - 23:35:27 10° WNW 23:40:30 26° N 23:45:39 10° NE night (unlit)
04 Dec - 01:23:05 10° NW 01:28:37 33° NNE 01:34:16 10° E night (unlit)
04 Dec - 03:09:38 10° NW 03:15:52 78° NE 03:22:15 10° SE visible
04 Dec - 04:56:28 10° NW 05:01:49 30° WSW 05:07:13 10° S visible
04 Dec - 18:24:47 10° SSE 18:29:22 24° ESE 18:34:02 10° ENE visible
04 Dec - 20:09:04 10° SW 20:15:00 89° NW 20:21:10 10° NE visible
04 Dec - 21:56:38 10° W 22:02:07 35° NNW 22:07:45 10° NE night (unlit)
04 Dec - 23:45:09 10° NW 23:50:11 26° N 23:55:21 10° ENE night (unlit)
05 Dec - 01:32:28 10° NW 01:38:13 38° NNE 01:44:05 10° E night (unlit)
05 Dec - 03:18:57 10° NW 03:25:13 83° SW 03:31:35 10° SE visible
05 Dec - 05:06:09 10° WNW 05:10:50 22° WSW 05:15:33 10° SSW visible
05 Dec - 18:33:12 10° S 18:38:22 33° ESE 18:43:41 10° NE visible
05 Dec - 20:18:25 10° SW 20:24:22 70° NW 20:30:30 10° NE visible
05 Dec - 22:06:26 10° W 22:11:45 31° NNW 22:17:12 10° NE night (unlit)
05 Dec - 23:54:47 10° NW 23:59:54 27° N 00:05:08 10° ENE night (unlit)
06 Dec - 01:41:50 10° NW 01:47:46 45° NNE 01:53:49 10° ESE night (unlit)
06 Dec - 03:28:18 10° NW 03:34:29 65° SW 03:40:46 10° SSE visible
06 Dec - 05:16:09 10° WNW 05:19:47 16° WSW 05:23:27 10° SW visible
06 Dec - 18:41:54 10° S 18:47:28 44° ESE 18:53:12 10° NE visible
06 Dec - 20:27:54 10° WSW 20:33:46 56° NW 20:39:50 10° NE visible
06 Dec - 22:16:13 10° WNW 22:21:24 28° NNW 22:26:43 10° NE night (unlit)
07 Dec - 00:04:21 10° NW 00:09:36 28° NNE 00:14:58 10° ENE night (unlit)
07 Dec - 01:51:10 10° NW 01:57:15 54° NE 02:03:29 10° ESE night (unlit)
07 Dec - 03:37:41 10° NW 03:43:41 49° WSW 03:49:45 10° SSE visible
07 Dec - 05:27:04 10° W 05:28:40 11° W 05:30:16 10° WSW night (unlit)
07 Dec - 17:08:46 10° SE 17:11:31 13° ESE 17:14:18 10° ENE visible
07 Dec - 18:50:49 10° SSW 18:56:37 59° ESE 19:02:38 10° NE visible
07 Dec - 20:37:31 10° WSW 20:43:15 46° NNW 20:49:11 10° NE visible
07 Dec - 22:26:00 10° WNW 22:31:05 27° N 22:36:18 10° NE night (unlit)
08 Dec - 00:13:50 10° NW 00:19:16 31° NNE 00:24:48 10° E night (unlit)
08 Dec - 02:00:28 10° NW 02:06:41 68° NE 02:13:02 10° SE night (unlit)
08 Dec - 03:47:10 10° NW 03:52:49 37° WSW 03:58:33 10° S night (unlit)
08 Dec - 17:16:22 10° SSE 17:20:25 19° ESE 17:24:33 10° ENE visible
08 Dec - 18:59:57 10° SSW 19:05:52 78° SE 19:12:00 10° NE visible
08 Dec - 20:47:12 10° W 20:52:47 39° NNW 20:58:33 10° NE visible
08 Dec - 22:35:45 10° WNW 22:40:48 26° N 22:45:58 10° NE night (unlit)
